This is the latest recevied weather packets stored in our database for station/object IR3AS. If no packets are shown the sender has not sent any weather packets the latest 10 day(s).
| Time | Temp. | Humidity | Pressure | Rain* | Wind** | Luminosity | Snow |
|---|---|---|---|---|---|---|---|
| 1777636862 | 7.78° C | 66% | 863.4 hPa | 0 mm | - | - | - |
| 1777636562 | 7.78° C | 66% | 863 hPa | 0 mm | - | - | - |
| 1777636262 | 7.78° C | 66% | 862.9 hPa | 0 mm | - | - | - |
| 1777635962 | 7.22° C | 68% | 863.1 hPa | 0 mm | - | - | - |
| 1777635662 | 7.22° C | 67% | 863.3 hPa | 0 mm | - | - | - |
| 1777635362 | 7.22° C | 67% | 863.4 hPa | 0 mm | - | - | - |
| 1777635062 | 7.22° C | 68% | 863.5 hPa | 0 mm | - | - | - |
| 1777634762 | 7.22° C | 68% | 863.5 hPa | 0 mm | - | - | - |
| 1777634462 | 6.67° C | 67% | 863.5 hPa | 0 mm | - | - | - |
| 1777634162 | 7.22° C | 66% | 863.8 hPa | 0 mm | - | - | - |
| 1777633862 | 7.78° C | 66% | 864 hPa | 0 mm | - | - | - |
| 1777633562 | 7.22° C | 67% | 863.8 hPa | 0 mm | - | - | - |
| 1777633262 | 7.78° C | 66% | 864 hPa | 0 mm | - | - | - |
| 1777632962 | 8.33° C | 65% | 864.3 hPa | 0 mm | - | - | - |
| 1777632662 | 8.33° C | 68% | 864.5 hPa | 0 mm | - | - | - |
| 1777632362 | 7.78° C | 69% | 864 hPa | 0 mm | - | - | - |
| 1777632062 | 7.22° C | 71% | 864 hPa | 0 mm | - | - | - |
| 1777631762 | 6.11° C | 71% | 864 hPa | 0 mm | - | - | - |
| 1777631462 | 6.67° C | 72% | 864 hPa | 0 mm | - | - | - |
| 1777631162 | 6.11° C | 72% | 863.9 hPa | 0 mm | - | - | - |
| 1777630862 | 6.11° C | 72% | 864 hPa | 0 mm | - | - | - |
| 1777630562 | 5.56° C | 72% | 864 hPa | 0 mm | - | - | - |
| 1777630262 | 5.56° C | 71% | 864.4 hPa | 0 mm | - | - | - |
| 1777629962 | 6.11° C | 72% | 864.3 hPa | 0 mm | - | - | - |
| 1777629662 | 6.11° C | 72% | 864.4 hPa | 0 mm | - | - | - |
* Rain latest hour (hover to see other rain measurements)
** Current wind speed in m/s (hover to see current wind gust speed)